Ft. Stewart, GA

11:48 AM EDT on October 18, 2017 (GMT -0400)
Wright Army Air Field

Weather History for KLHW - October, 2014

Change the Weather History Date:

Thursday, October 30, 2014

  Actual Average Record
Temperature  
Mean Temperature 64 °F -  
Max Temperature 73 °F 74 °F 86 °F (1984)
Min Temperature 55 °F 54 °F 33 °F (2001)
Degree Days  
Heating Degree Days 1    
Growing Degree Days 14 (Base 50)    
Moisture  
Dew Point 59 °F    
Average Humidity 79    
Maximum Humidity 94    
Minimum Humidity 53    
Precipitation  
Precipitation 0.00 in - - ()
Sea Level Pressure  
Sea Level Pressure 29.96 in    
Wind  
Wind Speed 2 mph (NNW)    
Max Wind Speed 8 mph    
Max Gust Speed -    
Visibility 10 miles    
Events      
Averages and records for this station are not official NWS values.
T = Trace of Precipitation, MM = Missing Value Source: NWS Daily Summary

Daily Weather History Graph

Daily Weather History Graph

Search for Another Location

Airport or City:

Trip Planner

Search our weather history database for the weather conditions in past years. The results will help you decide how hot, cold, wet, or windy it might be!

Date:

Astronomy

Oct. 30, 2014 Rise Set
Actual Time 7:41 AM EDT 6:38 PM EDT
Civil Twilight 7:15 AM EDT 7:03 PM EDT
Nautical Twilight 6:47 AM EDT 7:32 PM EDT
Astronomical Twilight 6:18 AM EDT 8:00 PM EDT
Moon 1:42 PM EDT (10/30) No Moon Set
Length of Visible Light 11h 47m
Length of Day
10h 57m
Waxing Crescent, 45% of the Moon is Illuminated
Oct 30
Waxing Crescent
Oct 30
First Quarter
Nov 6
Full
Nov 14
Last Quarter
Nov 22
New

Hourly Weather History & Observations

Time (EDT) Temp. Dew Point Humidity Pressure Visibility Wind Dir Wind Speed Gust Speed Precip Events Conditions
12:58 AM 64.9 °F 63.3 °F 94% 29.98 in 10.0 mi Calm Calm - N/A   Mostly Cloudy
1:58 AM 66.9 °F 62.1 °F 84% 29.97 in 10.0 mi West 3.5 mph - N/A   Partly Cloudy
2:58 AM 63.3 °F 61.3 °F 93% 29.96 in 9.0 mi Calm Calm - N/A   Scattered Clouds
3:48 AM 64.4 °F 62.6 °F 94% 29.94 in 9.0 mi Calm Calm - N/A   Mostly Cloudy
3:58 AM 64.2 °F 61.9 °F 92% 29.95 in 10.0 mi Calm Calm - N/A   Overcast
4:58 AM 65.5 °F 62.2 °F 89% 29.95 in 10.0 mi Calm Calm - N/A   Overcast
5:58 AM 65.5 °F 61.9 °F 88% 29.96 in 10.0 mi WNW 3.5 mph - N/A   Overcast
6:58 AM 64.4 °F 60.8 °F 88% 29.97 in 10.0 mi WNW 4.6 mph - N/A   Mostly Cloudy
7:58 AM 63.7 °F 60.1 °F 88% 29.98 in 10.0 mi NW 3.5 mph - N/A   Overcast
8:58 AM 63.9 °F 59.7 °F 86% 29.99 in 10.0 mi NNW 3.5 mph - N/A   Scattered Clouds
9:58 AM 64.9 °F 59.4 °F 82% 30.00 in 10.0 mi NNW 5.8 mph - N/A   Mostly Cloudy
10:23 AM 66.2 °F 59.0 °F 78% 29.99 in 10.0 mi North 8.1 mph - N/A   Mostly Cloudy
10:56 AM 66.2 °F 59.0 °F 78% 29.99 in 10.0 mi NNW 6.9 mph - N/A   Mostly Cloudy
10:58 AM 66.9 °F 59.4 °F 77% 30.00 in 10.0 mi NNW 4.6 mph - N/A   Overcast
11:58 AM 67.1 °F 59.5 °F 77% 30.00 in 10.0 mi North 5.8 mph - N/A   Overcast
12:28 PM 68.0 °F 59.0 °F 73% 29.98 in 10.0 mi NNW 4.6 mph - N/A   Mostly Cloudy
12:58 PM 69.3 °F 58.8 °F 69% 29.98 in 10.0 mi Variable 3.5 mph - N/A   Scattered Clouds
1:13 PM 69.8 °F 60.8 °F 73% 29.97 in 10.0 mi NNW 4.6 mph - N/A   Mostly Cloudy
1:33 PM 69.8 °F 57.2 °F 64% 29.96 in 10.0 mi Calm Calm - N/A   Scattered Clouds
1:58 PM 71.6 °F 58.1 °F 62% 29.96 in 10.0 mi Calm Calm - N/A   Clear
2:58 PM 73.6 °F 55.2 °F 53% 29.93 in 10.0 mi North 3.5 mph - N/A   Clear
3:58 PM 72.3 °F 54.5 °F 53% 29.92 in 10.0 mi NNW 6.9 mph - N/A   Overcast
4:58 PM 72.0 °F 54.5 °F 54% 29.91 in 10.0 mi Calm Calm - N/A   Overcast
5:58 PM 70.5 °F 57.4 °F 63% 29.91 in 10.0 mi Calm Calm - N/A   Overcast
6:58 PM 67.5 °F 57.7 °F 71% 29.91 in 10.0 mi Calm Calm - N/A   Overcast
7:58 PM 62.4 °F 56.7 °F 81% 29.93 in 10.0 mi Calm Calm - N/A   Clear
8:58 PM 59.7 °F 55.8 °F 87% 29.94 in 10.0 mi Calm Calm - N/A   Clear
9:58 PM 58.3 °F 55.2 °F 90% 29.93 in 10.0 mi Calm Calm - N/A   Clear
10:58 PM 55.9 °F 53.8 °F 92% 29.93 in 10.0 mi Calm Calm - N/A   Clear
11:58 PM 55.6 °F 53.2 °F 92% 29.92 in 10.0 mi Calm Calm - N/A   Clear